Arlington, WA
on Wednesday, December 26, 2012

Wednesday
Previous Day Next Day
Daily Summary
 ActualAverageRecord
Temperature
Mean Temperature °F °F  
Max Temperature 44°F 47°F 53°F (1976)
Min Temperature 37°F 30°F 19°F (1996)
Degree Days
Heating Degree Days 24    
Moisture
Dew Point 36°F   
Average Humidity 84    
Maximum Humidity 93    
Minimum Humidity 76    
Precipitation
Precipitation 0.00 in in in ()
Wind
Wind Speed 5 mph   
Max Wind Speed 16 mph   
Max Gust Speed 21 mph   
Visibility 10 miles   
Events     
Averages and records for this station are not official NWS values.
Key: T is trace of precipitation, MM is missing value
Source: NWS Daily Summary
Seasonal Weather Averages
Time(PST)TemperatureDew PointHumidity Pressure Visibility Wind DirectionWind SpeedGust SpeedPrecipitationEvents Conditions
12:15 AM 39.2°F 35.6°F 87% 29.72 in 10.0 miles Calm Calm - N/A   Overcast
12:35 AM 41.0°F 35.6°F 81% 29.72 in 10.0 miles East 3.5 mph - N/A   Overcast
12:55 AM 42.8°F 35.6°F 76% 29.72 in 10.0 miles Calm Calm - N/A   Overcast
1:15 AM 41.0°F 35.6°F 81% 29.72 in 10.0 miles Calm Calm - N/A   Overcast
1:35 AM 39.2°F 35.6°F 87% 29.73 in 10.0 miles NNE 4.6 mph - N/A   Overcast
1:55 AM 39.2°F 35.6°F 87% 29.72 in 10.0 miles Calm Calm - N/A   Overcast
2:15 AM 39.2°F 33.8°F 81% 29.73 in 10.0 miles Calm Calm - N/A   Overcast
2:35 AM 39.2°F 33.8°F 81% 29.73 in 10.0 miles Calm Calm - N/A   Overcast
2:55 AM 39.2°F 35.6°F 87% 29.73 in 10.0 miles Calm Calm - N/A   Overcast
3:15 AM 39.2°F 35.6°F 87% 29.73 in 10.0 miles Calm Calm - N/A   Overcast
3:35 AM 39.2°F 35.6°F 87% 29.73 in 10.0 miles NE 5.8 mph - N/A   Overcast
3:55 AM 39.2°F 35.6°F 87% 29.72 in 10.0 miles Calm Calm - N/A   Overcast
4:15 AM 39.2°F 35.6°F 87% 29.73 in 10.0 miles Calm Calm - N/A   Overcast
4:35 AM 39.2°F 35.6°F 87% 29.73 in 10.0 miles Calm Calm - N/A   Overcast
4:55 AM 37.4°F 35.6°F 93% 29.73 in 10.0 miles Calm Calm - N/A   Overcast
5:15 AM 37.4°F 35.6°F 93% 29.73 in 10.0 miles Calm Calm - N/A   Overcast
5:35 AM 39.2°F 35.6°F 87% 29.74 in 10.0 miles Calm Calm - N/A   Overcast
5:55 AM 39.2°F 35.6°F 87% 29.74 in 10.0 miles Calm Calm - N/A   Overcast
6:15 AM 39.2°F 33.8°F 81% 29.75 in 10.0 miles SE 9.2 mph - N/A   Overcast
6:35 AM 39.2°F 33.8°F 81% 29.75 in 10.0 miles ESE 8.1 mph - N/A   Overcast
6:55 AM 39.2°F 33.8°F 81% 29.75 in 10.0 miles ESE 8.1 mph - N/A   Overcast
7:15 AM 39.2°F 33.8°F 81% 29.75 in 10.0 miles ESE 6.9 mph - N/A   Overcast
7:35 AM 39.2°F 33.8°F 81% 29.76 in 10.0 miles SE 3.5 mph - N/A   Overcast
7:55 AM 39.2°F 33.8°F 81% 29.77 in 10.0 miles Calm Calm - N/A   Overcast
8:15 AM 37.4°F 35.6°F 93% 29.77 in 9.0 miles Calm Calm - N/A   Overcast
8:35 AM 37.4°F 35.6°F 93% 29.78 in 10.0 miles Calm Calm - N/A   Overcast
8:55 AM 39.2°F 35.6°F 87% 29.78 in 10.0 miles Calm Calm - N/A   Overcast
9:15 AM 39.2°F 35.6°F 87% 29.78 in 10.0 miles Calm Calm - N/A   Overcast
9:35 AM 39.2°F 35.6°F 87% 29.79 in 10.0 miles Calm Calm - N/A   Overcast
9:55 AM 39.2°F 35.6°F 87% 29.79 in 10.0 miles South 3.5 mph - N/A   Overcast
10:15 AM 41.0°F 35.6°F 81% 29.80 in 10.0 miles Calm Calm - N/A   Overcast
10:35 AM 39.2°F 37.4°F 93% 29.80 in 10.0 miles Calm Calm - N/A   Overcast
10:55 AM 41.0°F 37.4°F 87% 29.80 in 10.0 miles ESE 8.1 mph - N/A   Overcast
11:15 AM 42.8°F 35.6°F 76% 29.79 in 10.0 miles SE 6.9 mph - N/A   Overcast
11:35 AM 42.8°F 37.4°F 81% 29.79 in 10.0 miles SE 9.2 mph - N/A   Overcast
11:55 AM 42.8°F 37.4°F 81% 29.79 in 10.0 miles SE 9.2 mph - N/A   Overcast
12:15 PM 42.8°F 37.4°F 81% 29.79 in 10.0 miles SE 9.2 mph - N/A   Overcast
12:35 PM 42.8°F 37.4°F 81% 29.79 in 10.0 miles SE 12.7 mph - N/A   Overcast
12:55 PM 44.6°F 37.4°F 76% 29.79 in 10.0 miles SE 9.2 mph - N/A   Overcast
1:15 PM 44.6°F 37.4°F 76% 29.79 in 10.0 miles SE 9.2 mph - N/A   Overcast
1:35 PM 44.6°F 37.4°F 76% 29.79 in 10.0 miles SE 11.5 mph - N/A   Overcast
1:55 PM 42.8°F 37.4°F 81% 29.79 in 10.0 miles SSE 15.0 mph 18.4 mph N/A   Overcast
2:15 PM 42.8°F 37.4°F 81% 29.79 in 10.0 miles SE 13.8 mph - N/A   Overcast
2:35 PM 42.8°F 37.4°F 81% 29.79 in 10.0 miles SE 12.7 mph - N/A   Overcast
2:55 PM 42.8°F 37.4°F 81% 29.80 in 10.0 miles SE 12.7 mph - N/A   Overcast
3:15 PM 42.8°F 37.4°F 81% 29.80 in 10.0 miles SE 11.5 mph 17.3 mph N/A   Overcast
3:35 PM 42.8°F 37.4°F 81% 29.80 in 10.0 miles ESE 12.7 mph - N/A   Overcast
3:55 PM 42.8°F 37.4°F 81% 29.80 in 10.0 miles ESE 12.7 mph - N/A   Overcast
4:15 PM 42.8°F 37.4°F 81% 29.81 in 10.0 miles SE 12.7 mph - N/A   Overcast
4:35 PM 42.8°F 37.4°F 81% 29.81 in 10.0 miles SE 10.4 mph - N/A   Overcast
5:15 PM 42.8°F 37.4°F 81% 29.81 in 10.0 miles SE 12.7 mph - N/A   Overcast
5:35 PM 42.8°F 37.4°F 81% 29.82 in 10.0 miles SE 13.8 mph 17.3 mph N/A   Overcast
5:55 PM 42.8°F 37.4°F 81% 29.82 in 10.0 miles SE 13.8 mph - N/A   Overcast
6:15 PM 42.8°F 37.4°F 81% 29.82 in 10.0 miles SE 13.8 mph 18.4 mph N/A   Overcast
6:35 PM 42.8°F 37.4°F 81% 29.82 in 10.0 miles SE 13.8 mph - N/A   Overcast
6:55 PM 42.8°F 37.4°F 81% 29.82 in 10.0 miles SE 15.0 mph 20.7 mph N/A   Overcast
7:15 PM 42.8°F 37.4°F 81% 29.83 in 10.0 miles SE 16.1 mph - N/A   Overcast
7:35 PM 42.8°F 37.4°F 81% 29.84 in 10.0 miles SE 13.8 mph 20.7 mph N/A   Overcast
7:55 PM 42.8°F 37.4°F 81% 29.84 in 10.0 miles ESE 11.5 mph 20.7 mph N/A   Overcast
8:15 PM 41.0°F 37.4°F 87% 29.84 in 10.0 miles ESE 12.7 mph 17.3 mph N/A   Overcast
8:35 PM 41.0°F 37.4°F 87% 29.85 in 10.0 miles SE 13.8 mph - N/A   Overcast
8:55 PM 41.0°F 37.4°F 87% 29.86 in 10.0 miles SE 16.1 mph 20.7 mph N/A   Overcast
9:15 PM 41.0°F 37.4°F 87% 29.87 in 10.0 miles SE 12.7 mph - N/A   Overcast
9:35 PM 41.0°F 37.4°F 87% 29.87 in 10.0 miles SE 10.4 mph - N/A   Overcast
9:55 PM 41.0°F 37.4°F 87% 29.88 in 10.0 miles ESE 12.7 mph - N/A   Overcast
10:15 PM 41.0°F 37.4°F 87% 29.89 in 9.0 miles SE 11.5 mph - N/A   Overcast
10:35 PM 41.0°F 37.4°F 87% 29.90 in 10.0 miles SE 11.5 mph - N/A   Overcast
10:55 PM 41.0°F 37.4°F 87% 29.90 in 10.0 miles SE 12.7 mph - N/A   Overcast
11:15 PM 41.0°F 37.4°F 87% 29.91 in 10.0 miles SE 12.7 mph - N/A   Overcast
11:35 PM 41.0°F 37.4°F 87% 29.91 in 10.0 miles SE 15.0 mph - N/A   Overcast
11:55 PM 41.0°F 37.4°F 87% 29.92 in 10.0 miles SE 10.4 mph 18.4 mph N/A   Overcast
Moon Phase
Dec. 26 Dec. 28 Jan. 04 Jan. 11 Jan. 18
Sunrise:07:58 AM (PST) Moon Rise:03:20 PM (PST)12/26
Sunset:04:20 PM (PST) Moon Set:06:24 AM (PST)12/26

Copyright © 2014 The Weather Underground, Inc.